{"data":{"norad_id":53531,"intl_designator":"2022-101E","name":"STARLINK-4487","alt_names":[],"object_type":"PAYLOAD","status":"ACTIVE","operator":null,"country":"US","launch_date":"2022-08-19","launch_site_code":"AFETR","launch_vehicle":null,"mission":null,"orbit_class":"UNKNOWN","rcs_meters":null,"size_class":null,"mass_kg":null,"dimensions":null,"purposes":["comms"],"wikipedia_slug":null,"has_3d_model":false,"image_url":null,"decayed_at":null,"tle_current":{"epoch":"2026-05-25T03:26:23.457120Z","epoch_age_seconds":73400,"freshness":"FRESH","line1":"1 53531U 22101E   26145.14332705 -.00001464  00000+0 -73923-4 0  9990","line2":"2 53531  53.2124  90.9067 0001545  81.1835 278.9332 15.08822095207708","mean_motion":15.08822095,"eccentricity":0.0001545,"inclination_deg":53.2124,"raan_deg":90.9067,"arg_perigee_deg":81.1835,"mean_anomaly_deg":278.9332,"bstar":-7.3923e-5,"rev_number":20770,"period_min":95.438687223095,"perigee_km":538.72929695159,"apogee_km":540.86693890303,"semimajor_km":6917.9351179273,"source":"CELESTRAK","updated_at":"2026-05-25T13:38:17.439945Z"}}}